Wind_Speed
15 16 17 17 17 17 17 17 18 17 15 15 18 21 25 27 28 22 28 27 11 20 18 9 11 15 18 21 21 22 14 16 22 22 20 26 18 14 13 12 19 17 14 18 20
16 16 17 18 17 17 18 18 18 18 19 18 16 15 18 23 26 32 34 29 25 19 20 20 19 19 23 22 27 22 16 25 21 20 21 24 25 24 17 18 18 16 26 23 18
16 17 17 19 20 20 20 20 20 19 19 18 17 15 13 12 19 20 25 28 26 27 27 20 21 23 27 30 30 28 24 24 25 31 31 28 27 31 25 21 22 29 29 27 20
16 16 17 18 19 20 21 22 22 21 20 20 19 18 14 8 7 1 6 7 23 29 22 23 26 32 28 26 32 27 35 34 34 36 34 27 35 31 32 30 31 28 35 29 24
18 18 18 18 18 19 19 20 21 22 22 22 21 19 18 14 22 16 22 16 6 12 22 29 32 33 29 30 32 30 29 38 39 38 38 38 32 32 36 42 40 39 38 34 31
19 20 21 22 23 22 21 20 19 19 21 23 23 21 15 23 12 16 19 16 16 17 22 23 30 34 34 34 31 35 36 37 41 40 39 32 32 36 38 40 40 38 34 35 36
19 20 22 23 23 23 23 23 21 21 20 21 22 20 22 31 17 15 15 16 18 20 22 22 23 30 35 32 42 41 34 32 32 36 32 38 32 31 39 38 35 35 38 35 34
19 20 21 21 21 21 22 22 21 22 22 19 19 16 20 18 18 20 23 25 26 25 25 22 21 24 31 37 37 32 31 29 29 29 37 31 31 30 38 39 32 34 35 33 35
24 24 25 27 28 28 28 24 17 16 18 18 13 10 18 10 12 16 17 27 25 24 26 26 25 25 21 21 22 29 24 34 34 29 31 29 30 31 36 38 33 31 30 34 35
26 27 27 28 29 28 28 25 15 16 10 8 11 12 20 15 12 5 4 6 18 22 24 28 23 19 18 19 24 23 30 34 28 26 27 30 29 29 32 33 33 32 26 27 35
27 28 28 29 30 27 23 20 15 11 5 20 18 16 25 15 5 11 11 12 14 17 20 28 17 25 43 30 30 28 32 32 29 28 28 25 27 30 23 27 25 26 24 30 32
28 30 31 31 28 12 12 15 18 16 24 24 35 41 37 33 35 31 23 21 17 18 19 20 29 39 22 31 33 33 31 31 28 26 24 23 26 26 22 22 25 26 26 28 30
29 31 29 28 18 11 15 13 18 18 20 40 47 40 34 29 32 28 25 28 22 21 21 24 37 23 29 31 29 32 32 27 30 25 26 23 26 25 24 27 30 27 28 29 31
28 29 25 21 9 16 13 17 18 18 9 11 7 7 19 9 17 19 21 27 24 26 23 24 26 32 31 33 31 28 28 28 27 23 18 21 20 24 18 21 19 22 29 28 30
28 27 15 18 15 12 16 19 17 11 6 12 17 8 18 16 3 5 6 19 19 21 21 34 24 27 32 36 29 34 24 26 27 24 21 25 15 23 16 17 16 15 22 24 25
27 20 14 13 15 13 19 15 12 4 3 9 11 13 16 20 21 7 12 7 17 18 21 29 33 28 29 28 31 26 27 27 25 18 17 26 20 25 18 17 18 19 23 21 25
24 13 13 12 17 17 15 13 5 2 18 9 15 12 12 14 16 12 15 12 11 7 19 24 26 29 30 28 29 31 21 16 17 16 22 18 20 22 19 19 21 17 18 15 13
17 10 10 8 14 12 9 2 5 11 15 20 20 22 19 17 17 18 17 12 15 13 10 12 14 27 29 32 26 30 25 15 25 15 20 23 22 19 19 22 20 10 11 8 12
15 10 7 8 10 8 10 4 3 14 17 19 20 17 19 17 16 21 19 9 15 3 8 9 15 24 29 28 28 26 27 28 22 21 16 16 20 29 23 18 13 7 13 11 15
14 8 8 10 9 7 4 11 14 17 18 17 17 3 17 25 7 10 15 4 10 1 4 7 17 21 25 27 33 28 22 25 17 23 21 20 19 9 14 18 12 9 12 20 21
10 5 2 6 8 10 6 14 21 23 21 18 20 9 17 19 17 17 10 6 3 5 9 13 12 24 21 24 28 24 23 26 18 19 16 14 13 7 9 7 11 12 18 25 23
8 5 5 4 5 6 9 20 23 17 21 15 15 19 10 22 19 19 13 8 7 9 9 16 7 17 23 27 26 29 25 23 15 24 17 14 15 7 8 8 12 15 25 26 26
10 15 2 1 3 8 18 18 22 18 16 20 17 18 9 14 8 13 9 6 5 5 2 6 7 9 21 18 21 26 28 25 21 13 19 17 14 6 8 13 13 17 25 26 27
8 6 6 11 7 9 17 16 18 23 13 17 18 17 15 15 17 9 13 5 8 12 11 3 7 16 11 9 16 13 29 31 24 19 18 19 3 11 13 11 12 20 25 26 27
6 6 8 7 13 12 13 18 19 17 15 22 10 15 18 16 19 17 10 14 9 1 3 3 7 17 19 10 14 22 27 31 28 24 21 21 10 17 14 12 15 22 24 26 27
10 8 13 21 18 14 12 14 19 20 18 15 13 18 18 18 17 18 19 14 9 8 6 7 4 18 17 12 15 24 27 23 30 27 27 26 14 12 16 18 16 18 24 23 25
10 12 7 13 15 12 8 17 19 19 11 21 19 18 16 15 24 27 29 25 20 19 14 12 7 7 12 7 9 17 23 22 26 24 27 18 10 22 14 11 16 19 23 21 23
Wind_Direction
333 333 331 332 331 329 328 327 325 325 327 314 299 289 289 289 282 273 265 256 241 245 231 241 219 220 225 228 229 233 248 251 253 259 274 280 287 288 302 306 284 294 299 302 303
331 329 330 330 328 326 322 322 321 323 322 321 320 315 298 294 285 278 268 260 246 224 228 225 223 220 224 231 230 225 243 240 248 261 273 290 286 285 272 272 256 260 288 274 286
331 328 326 325 325 324 322 320 319 320 318 316 316 315 314 316 302 274 258 253 247 236 233 235 237 229 232 231 232 229 238 249 255 261 266 269 277 283 287 277 281 298 287 285 295
339 333 330 328 325 323 322 320 318 315 312 310 309 308 308 300 250 334 359 263 227 227 227 237 242 242 234 233 235 239 239 245 253 259 268 271 275 276 283 289 289 265 276 279 282
347 344 339 335 331 327 324 320 317 315 311 306 304 302 304 255 246 265 295 302 285 227 232 235 235 235 239 236 235 237 242 246 250 254 255 263 264 272 278 283 285 289 284 281 285
346 343 340 337 334 332 329 324 317 310 306 304 300 298 286 265 269 262 261 253 247 240 239 233 235 236 247 241 241 241 245 250 258 260 260 266 271 272 269 275 279 280 273 273 272
348 344 341 338 334 332 328 325 321 312 302 292 292 292 271 256 261 251 250 252 249 245 244 244 239 233 245 249 251 252 256 262 255 259 266 272 270 265 280 282 280 281 277 274 273
346 343 340 337 333 328 322 319 315 312 305 295 283 281 264 276 264 263 261 260 254 248 246 246 257 273 256 252 262 254 257 260 253 254 255 258 264 266 269 270 266 272 285 281 275
348 345 342 342 339 334 326 321 307 299 300 301 280 230 275 283 261 260 253 249 245 245 244 243 248 255 265 246 244 245 248 248 249 248 261 255 260 262 255 257 258 252 255 268 273
346 342 338 338 335 330 324 325 326 292 288 272 257 254 256 271 263 219 269 257 234 244 246 231 229 239 242 235 226 222 236 242 257 251 251 248 251 262 261 264 265 261 255 259 273
342 338 334 332 334 334 334 357 346 305 235 264 276 219 286 286 242 242 274 271 252 240 236 225 217 222 220 220 240 236 239 248 254 253 247 256 260 265 276 275 259 249 255 269 265
343 339 333 332 333 344 348 327 323 307 296 278 263 263 261 269 269 264 259 251 249 239 229 227 220 226 232 227 234 244 254 253 261 261 258 265 261 264 256 255 255 266 247 253 261
341 337 334 333 338 2 322 327 328 316 295 283 265 258 259 250 248 255 243 241 240 245 235 225 235 227 234 234 234 234 236 247 258 268 270 273 271 267 266 271 273 267 275 274 276
340 340 338 348 345 326 324 330 326 330 291 280 233 225 228 235 256 249 237 230 235 238 248 247 240 240 227 237 230 240 233 243 248 253 260 258 270 253 258 264 259 257 257 253 249
342 342 353 349 350 345 331 326 322 324 274 37 18 18 344 215 156 208 221 239 240 243 231 242 242 234 239 237 229 244 243 245 244 250 257 253 260 266 275 272 276 269 260 256 258
342 343 355 353 325 325 321 317 320 256 257 4 9 328 346 338 307 305 202 227 268 243 245 253 249 256 245 241 247 238 243 248 255 254 246 242 244 267 260 271 277 269 266 260 242
344 350 359 354 332 321 325 326 286 303 318 351 343 335 302 284 288 246 246 256 224 267 254 246 243 251 250 251 231 240 229 234 236 235 242 243 238 256 269 268 269 276 266 262 251
348 345 350 348 331 336 340 305 265 281 1 350 343 333 319 315 301 284 278 262 267 259 257 276 270 225 239 241 235 224 233 220 219 216 245 248 251 256 253 254 248 282 237 229 138
347 325 330 319 337 328 338 282 34 318 353 340 335 346 323 338 332 306 268 257 274 125 275 315 278 261 223 243 239 230 226 236 244 234 251 253 235 239 243 246 239 199 200 144 132
348 317 285 322 319 320 293 283 295 348 335 327 326 280 308 318 330 313 317 100 296 289 295 280 288 280 286 222 245 243 219 226 223 234 239 235 250 274 200 225 212 206 164 137 133
327 250 273 329 327 282 286 305 333 327 304 321 315 293 322 323 315 326 274 174 232 280 289 269 260 271 288 266 215 230 235 217 237 227 238 247 269 199 172 143 148 170 162 139 146
301 277 186 346 291 268 296 332 319 320 325 314 315 319 0 306 306 295 242 9 239 327 303 295 279 258 267 273 217 232 224 230 218 219 236 246 248 89 101 138 164 165 147 140 150
302 296 209 297 328 321 315 319 320 335 343 325 323 311 318 299 320 319 339 173 227 274 289 344 244 260 258 267 259 229 221 233 237 240 218 235 242 164 170 211 178 126 132 144 152
302 310 355 333 328 306 321 318 317 327 328 319 309 312 310 325 288 271 333 276 248 297 268 337 259 263 253 314 339 284 211 230 227 211 227 227 194 165 175 144 127 122 136 147 148
286 338 357 300 324 312 305 292 315 335 340 330 316 325 325 311 310 322 310 312 314 249 237 205 269 288 257 256 304 302 284 224 223 203 222 235 162 210 176 159 121 129 142 145 149
335 340 330 302 307 306 313 319 323 328 327 315 319 317 312 310 310 315 309 297 289 271 243 219 282 301 281 215 273 288 275 266 220 200 221 240 159 125 98 105 124 145 143 153 155
337 324 308 292 305 327 320 325 313 329 307 308 307 314 305 309 311 303 294 285 280 277 263 280 302 320 249 197 321 276 236 240 211 204 213 227 162 127 144 119 151 156 152 158 159
Height
1519 1517 1515 1512 1510 1509 1507 1504 1503 1502 1498 1497 1496 1494 1494 1491 1492 1492 1486 1492 1494 1494 1496 1501 1499 1501 1502 1501 1501 1502 1502 1495 1484 1478 1470 1462 1460 1461 1464 1466 1469 1470 1472 1473 1473
1518 1517 1514 1512 1511 1508 1508 1505 1502 1497 1495 1495 1493 1491 1491 1489 1488 1480 1482 1485 1488 1491 1492 1495 1494 1497 1497 1496 1497 1496 1492 1483 1476 1471 1466 1463 1462 1461 1464 1466 1468 1471 1471 1469 1469
1516 1514 1512 1509 1507 1504 1502 1501 1498 1494 1494 1494 1491 1491 1490 1491 1487 1476 1474 1477 1480 1484 1487 1491 1491 1491 1491 1491 1489 1486 1479 1478 1472 1470 1467 1464 1461 1462 1461 1460 1462 1464 1465 1464 1465
1515 1512 1509 1507 1505 1502 1499 1496 1494 1494 1492 1489 1487 1487 1487 1489 1480 1470 1471 1471 1473 1478 1483 1485 1486 1483 1482 1481 1482 1479 1472 1474 1471 1469 1465 1461 1460 1457 1457 1457 1459 1460 1462 1460 1460
1514 1511 1508 1505 1502 1499 1497 1494 1491 1488 1486 1485 1483 1484 1484 1481 1468 1472 1470 1473 1473 1474 1478 1480 1479 1480 1472 1474 1474 1465 1465 1466 1464 1462 1459 1458 1455 1455 1453 1456 1455 1454 1455 1454 1455
1513 1509 1506 1503 1500 1497 1494 1491 1489 1487 1484 1481 1481 1482 1481 1471 1465 1468 1470 1471 1472 1473 1474 1475 1473 1477 1470 1466 1463 1461 1461 1457 1456 1453 1452 1451 1448 1450 1448 1452 1449 1449 1448 1449 1450
1512 1509 1506 1502 1498 1495 1492 1488 1486 1483 1481 1480 1477 1475 1471 1458 1460 1460 1463 1465 1467 1469 1468 1469 1470 1473 1468 1463 1460 1459 1455 1449 1444 1449 1444 1451 1441 1438 1443 1445 1442 1443 1442 1442 1442
1513 1509 1506 1502 1498 1494 1490 1485 1482 1478 1475 1473 1472 1471 1461 1455 1455 1458 1459 1458 1460 1461 1463 1466 1466 1464 1460 1461 1459 1453 1453 1446 1436 1442 1434 1449 1443 1432 1439 1438 1435 1437 1437 1435 1433
1511 1507 1503 1498 1494 1489 1485 1481 1477 1475 1472 1469 1469 1470 1459 1451 1450 1449 1452 1452 1455 1456 1459 1462 1465 1462 1460 1453 1454 1447 1444 1439 1429 1433 1434 1436 1434 1419 1428 1429 1425 1427 1429 1430 1427
1510 1505 1501 1496 1492 1487 1481 1475 1471 1469 1469 1469 1468 1471 1453 1450 1448 1448 1450 1449 1450 1452 1454 1455 1458 1458 1454 1444 1438 1439 1442 1425 1431 1426 1424 1424 1423 1412 1418 1419 1417 1416 1417 1419 1421
1509 1504 1500 1495 1490 1484 1478 1472 1473 1469 1469 1465 1456 1451 1444 1447 1447 1447 1447 1447 1446 1447 1445 1447 1451 1438 1413 1427 1425 1429 1424 1425 1417 1416 1419 1418 1417 1406 1410 1410 1406 1406 1409 1412 1414
1507 1502 1497 1492 1488 1484 1481 1479 1477 1476 1461 1458 1449 1442 1442 1445 1441 1441 1445 1444 1443 1440 1440 1441 1427 1399 1433 1428 1428 1428 1426 1419 1412 1411 1412 1410 1407 1400 1399 1399 1399 1399 1400 1404 1406
1506 1501 1495 1490 1485 1484 1482 1480 1477 1473 1462 1442 1430 1433 1433 1435 1430 1432 1437 1437 1436 1434 1432 1430 1401 1430 1421 1422 1424 1416 1416 1419 1417 1415 1407 1408 1404 1395 1391 1391 1391 1392 1395 1397 1399
1505 1499 1494 1488 1488 1484 1482 1480 1476 1472 1462 1422 1418 1419 1425 1426 1425 1424 1425 1430 1430 1430 1428 1418 1416 1413 1414 1412 1414 1410 1407 1412 1414 1419 1421 1409 1414 1388 1387 1385 1384 1386 1386 1386 1389
1503 1498 1493 1488 1488 1486 1485 1479 1476 1475 1454 1418 1427 1427 1424 1423 1419 1418 1424 1423 1422 1420 1427 1404 1407 1410 1410 1393 1408 1396 1409 1405 1406 1410 1413 1408 1412 1371 1383 1383 1381 1378 1377 1378 1380
1502 1496 1493 1492 1486 1487 1483 1480 1478 1477 1457 1441 1445 1438 1434 1430 1424 1416 1418 1421 1420 1415 1412 1403 1407 1404 1396 1401 1400 1401 1403 1404 1401 1401 1413 1391 1405 1373 1383 1379 1372 1368 1367 1367 1370
1501 1496 1493 1491 1491 1486 1482 1481 1478 1471 1443 1439 1432 1431 1429 1425 1418 1413 1413 1412 1414 1423 1411 1401 1401 1399 1398 1395 1393 1395 1400 1415 1422 1412 1397 1384 1393 1372 1369 1367 1363 1361 1360 1362 1365
1499 1496 1493 1491 1490 1486 1483 1482 1480 1459 1442 1436 1432 1426 1425 1418 1412 1408 1408 1413 1405 1406 1413 1424 1408 1390 1389 1385 1386 1389 1388 1393 1412 1403 1392 1380 1386 1367 1355 1353 1353 1355 1355 1358 1364
1496 1494 1493 1493 1489 1487 1486 1474 1468 1451 1444 1441 1437 1443 1433 1435 1434 1416 1405 1408 1405 1417 1423 1419 1398 1382 1383 1383 1382 1378 1389 1372 1385 1375 1382 1362 1354 1345 1346 1345 1347 1350 1354 1359 1365
1496 1494 1493 1492 1489 1488 1486 1474 1459 1451 1448 1445 1444 1452 1449 1428 1433 1431 1417 1417 1411 1412 1416 1416 1414 1391 1380 1378 1373 1371 1367 1387 1373 1397 1391 1369 1353 1343 1339 1340 1341 1347 1350 1359 1367
1494 1491 1489 1489 1489 1487 1482 1466 1458 1457 1452 1447 1443 1452 1439 1436 1433 1427 1425 1410 1416 1413 1413 1413 1415 1394 1392 1371 1371 1369 1365 1363 1367 1368 1379 1383 1359 1321 1328 1331 1339 1343 1350 1358 1368
1495 1486 1485 1486 1488 1485 1476 1466 1461 1458 1450 1445 1441 1441 1444 1441 1428 1420 1415 1426 1426 1420 1418 1411 1409 1400 1389 1365 1358 1358 1359 1359 1365 1374 1364 1364 1354 1322 1326 1330 1336 1339 1347 1358 1367
1495 1485 1484 1484 1484 1482 1478 1468 1461 1456 1452 1450 1444 1439 1438 1437 1440 1421 1422 1425 1425 1424 1422 1422 1406 1398 1391 1371 1356 1351 1352 1352 1355 1358 1364 1368 1355 1327 1329 1331 1333 1339 1349 1359 1368
1498 1486 1482 1483 1482 1482 1473 1470 1463 1461 1457 1452 1445 1439 1436 1436 1429 1426 1428 1422 1419 1417 1418 1424 1415 1401 1388 1386 1386 1366 1349 1345 1346 1359 1356 1347 1343 1335 1330 1330 1334 1344 1352 1360 1368
1498 1489 1489 1482 1480 1479 1478 1471 1462 1456 1455 1452 1447 1438 1434 1430 1420 1414 1414 1415 1413 1414 1418 1424 1412 1395 1386 1396 1401 1392 1366 1338 1338 1341 1353 1340 1339 1335 1331 1332 1338 1347 1353 1361 1369
1504 1501 1494 1491 1479 1476 1473 1467 1460 1456 1457 1450 1447 1442 1435 1428 1422 1415 1411 1409 1410 1413 1413 1413 1404 1394 1384 1385 1398 1398 1361 1342 1330 1333 1339 1335 1333 1325 1330 1336 1343 1350 1355 1362 1370
1506 1504 1500 1489 1476 1470 1470 1470 1463 1460 1453 1448 1441 1440 1431 1426 1421 1415 1408 1405 1405 1401 1399 1400 1400 1398 1378 1376 1398 1374 1341 1336 1321 1322 1326 1336 1324 1330 1334 1340 1344 1350 1355 1361 1369